Year,Month,Day,Hour,Minute,Value (Times are PST for windgust in km/hr)
2020,05,03,00,00,16.10
2020,05,03,00,01,8.10
2020,05,03,00,02,6.40
2020,05,03,00,03,4.80
2020,05,03,00,04,3.20
2020,05,03,00,05,4.80
2020,05,03,00,06,9.60
2020,05,03,00,07,6.40
2020,05,03,00,08,8.10
2020,05,03,00,09,9.60
2020,05,03,00,10,6.40
2020,05,03,00,11,8.10
2020,05,03,00,12,8.10
2020,05,03,00,13,11.30
2020,05,03,00,14,8.10
2020,05,03,00,15,8.10
2020,05,03,00,16,8.10
2020,05,03,00,17,9.60
2020,05,03,00,18,8.10
2020,05,03,00,19,6.40
2020,05,03,00,20,4.80
2020,05,03,00,21,6.40
2020,05,03,00,22,4.80
2020,05,03,00,23,3.20
2020,05,03,00,24,6.40
2020,05,03,00,25,4.80
2020,05,03,00,26,6.40
2020,05,03,00,27,8.10
2020,05,03,00,28,6.40
2020,05,03,00,29,8.10
2020,05,03,00,30,11.30
2020,05,03,00,31,9.60
2020,05,03,00,32,8.10
2020,05,03,00,33,8.10
2020,05,03,00,34,6.40
2020,05,03,00,35,4.80
2020,05,03,00,36,6.40
2020,05,03,00,37,4.80
2020,05,03,00,38,6.40
2020,05,03,00,39,6.40
2020,05,03,00,40,6.40
2020,05,03,00,41,4.80
2020,05,03,00,42,6.40
2020,05,03,00,43,9.60
2020,05,03,00,44,8.10
2020,05,03,00,45,6.40
2020,05,03,00,46,4.80
2020,05,03,00,47,6.40
2020,05,03,00,48,6.40
2020,05,03,00,49,1.60
2020,05,03,00,50,1.60
2020,05,03,00,51,3.20
2020,05,03,00,52,6.40
2020,05,03,00,53,4.80
2020,05,03,00,54,1.60
2020,05,03,00,55,3.20
2020,05,03,00,56,3.20
2020,05,03,00,57,3.20
2020,05,03,00,58,4.80
2020,05,03,00,59,4.80
2020,05,03,01,00,3.20
2020,05,03,01,01,1.60
2020,05,03,01,02,1.60
2020,05,03,01,03,1.60
2020,05,03,01,04,6.40
2020,05,03,01,05,6.40
2020,05,03,01,06,3.20
2020,05,03,01,07,3.20
2020,05,03,01,16,3.20
2020,05,03,01,17,4.80
2020,05,03,01,18,1.60
2020,05,03,01,28,3.20
2020,05,03,01,29,3.20
2020,05,03,01,30,1.60
2020,05,03,01,34,3.20
2020,05,03,01,35,4.80
2020,05,03,01,36,4.80
2020,05,03,01,37,3.20
2020,05,03,01,38,3.20
2020,05,03,01,39,1.60
2020,05,03,01,40,6.40
2020,05,03,01,41,4.80
2020,05,03,01,42,3.20
2020,05,03,01,43,4.80
2020,05,03,01,44,6.40
2020,05,03,01,45,4.80
2020,05,03,01,46,4.80
2020,05,03,01,47,1.60
2020,05,03,01,48,4.80
2020,05,03,01,49,4.80
2020,05,03,01,50,3.20
2020,05,03,01,51,1.60
2020,05,03,01,52,3.20
2020,05,03,01,53,4.80
2020,05,03,01,54,4.80
2020,05,03,01,55,3.20
2020,05,03,01,56,4.80
2020,05,03,01,57,3.20
2020,05,03,01,58,3.20
2020,05,03,01,59,4.80
2020,05,03,02,00,4.80
2020,05,03,02,01,1.60
2020,05,03,02,12,1.60
2020,05,03,02,13,1.60
2020,05,03,02,14,3.20
2020,05,03,02,15,3.20
2020,05,03,02,16,3.20
2020,05,03,02,17,3.20
2020,05,03,02,22,3.20
2020,05,03,02,23,1.60
2020,05,03,02,24,4.80
2020,05,03,02,25,4.80
2020,05,03,02,26,3.20
2020,05,03,02,27,6.40
2020,05,03,02,28,8.10
2020,05,03,02,29,4.80
2020,05,03,02,30,8.10
2020,05,03,02,31,9.60
2020,05,03,02,32,4.80
2020,05,03,02,33,6.40
2020,05,03,02,34,8.10
2020,05,03,02,35,6.40
2020,05,03,02,36,8.10
2020,05,03,02,37,6.40
2020,05,03,02,38,3.20
2020,05,03,02,39,4.80
2020,05,03,02,40,3.20
2020,05,03,02,41,4.80
2020,05,03,02,42,4.80
2020,05,03,02,43,6.40
2020,05,03,02,44,3.20
2020,05,03,02,45,4.80
2020,05,03,02,46,3.20
2020,05,03,02,47,1.60
2020,05,03,02,48,1.60
2020,05,03,02,49,1.60
2020,05,03,02,50,4.80
2020,05,03,02,51,1.60
2020,05,03,02,52,1.60
2020,05,03,02,53,1.60
2020,05,03,02,54,3.20
2020,05,03,02,55,1.60
2020,05,03,02,56,3.20
2020,05,03,02,57,3.20
2020,05,03,02,58,4.80
2020,05,03,02,59,3.20
2020,05,03,03,00,3.20
2020,05,03,03,01,3.20
2020,05,03,03,02,4.80
2020,05,03,03,03,3.20
2020,05,03,03,04,3.20
2020,05,03,03,05,3.20
2020,05,03,03,06,3.20
2020,05,03,03,07,4.80
2020,05,03,03,08,3.20
2020,05,03,03,09,3.20
2020,05,03,03,10,3.20
2020,05,03,03,11,3.20
2020,05,03,03,12,3.20
2020,05,03,03,13,3.20
2020,05,03,03,14,3.20
2020,05,03,03,15,3.20
2020,05,03,03,16,3.20
2020,05,03,03,17,1.60
2020,05,03,03,19,3.20
2020,05,03,03,20,1.60
2020,05,03,03,21,1.60
2020,05,03,03,23,1.60
2020,05,03,03,24,3.20
2020,05,03,03,25,1.60
2020,05,03,03,38,1.60
2020,05,03,03,39,1.60
2020,05,03,03,58,6.40
2020,05,03,03,59,1.60
2020,05,03,04,00,4.80
2020,05,03,04,01,6.40
2020,05,03,04,02,3.20
2020,05,03,04,03,3.20
2020,05,03,04,04,8.10
2020,05,03,04,05,8.10
2020,05,03,04,06,6.40
2020,05,03,04,07,8.10
2020,05,03,04,08,9.60
2020,05,03,04,09,8.10
2020,05,03,04,10,12.90
2020,05,03,04,11,12.90
2020,05,03,04,12,9.60
2020,05,03,04,13,8.10
2020,05,03,04,14,8.10
2020,05,03,04,15,4.80
2020,05,03,04,16,4.80
2020,05,03,04,17,1.60
2020,05,03,04,18,4.80
2020,05,03,04,19,4.80
2020,05,03,04,20,4.80
2020,05,03,04,21,4.80
2020,05,03,04,22,3.20
2020,05,03,04,23,4.80
2020,05,03,04,24,3.20
2020,05,03,04,25,4.80
2020,05,03,04,27,1.60
2020,05,03,04,31,1.60
2020,05,03,04,32,3.20
2020,05,03,04,35,1.60
2020,05,03,04,38,3.20
2020,05,03,04,39,3.20
2020,05,03,04,40,3.20
2020,05,03,04,41,4.80
2020,05,03,04,42,3.20
2020,05,03,04,43,3.20
2020,05,03,04,51,1.60
2020,05,03,04,52,4.80
2020,05,03,04,53,4.80
2020,05,03,04,54,4.80
2020,05,03,04,55,6.40
2020,05,03,04,56,8.10
2020,05,03,04,57,6.40
2020,05,03,04,58,6.40
2020,05,03,04,59,6.40
2020,05,03,05,00,8.10
2020,05,03,05,01,9.60
2020,05,03,05,02,4.80
2020,05,03,05,03,6.40
2020,05,03,05,04,6.40
2020,05,03,05,05,8.10
2020,05,03,05,06,8.10
2020,05,03,05,07,6.40
2020,05,03,05,08,6.40
2020,05,03,05,09,4.80
2020,05,03,05,10,4.80
2020,05,03,05,11,3.20
2020,05,03,05,12,1.60
2020,05,03,05,13,3.20
2020,05,03,05,14,6.40
2020,05,03,05,15,4.80
2020,05,03,05,16,3.20
2020,05,03,05,17,3.20
2020,05,03,05,18,3.20
2020,05,03,05,19,3.20
2020,05,03,05,20,3.20
2020,05,03,05,21,3.20
2020,05,03,05,22,4.80
2020,05,03,05,23,3.20
2020,05,03,05,28,3.20
2020,05,03,05,29,4.80
2020,05,03,05,30,3.20
2020,05,03,05,31,3.20
2020,05,03,05,32,3.20
2020,05,03,05,33,3.20
2020,05,03,05,34,3.20
2020,05,03,05,35,1.60
2020,05,03,05,36,3.20
2020,05,03,05,37,4.80
2020,05,03,05,38,3.20
2020,05,03,05,39,4.80
2020,05,03,05,40,3.20
2020,05,03,05,41,6.40
2020,05,03,05,42,3.20
2020,05,03,05,43,1.60
2020,05,03,05,44,3.20
2020,05,03,05,45,3.20
2020,05,03,05,46,1.60
2020,05,03,05,47,3.20
2020,05,03,05,48,3.20
2020,05,03,05,49,3.20
2020,05,03,05,50,3.20
2020,05,03,05,51,4.80
2020,05,03,05,52,4.80
2020,05,03,05,53,3.20
2020,05,03,05,54,3.20
2020,05,03,05,55,3.20
2020,05,03,05,56,4.80
2020,05,03,05,57,6.40
2020,05,03,05,58,4.80
2020,05,03,06,14,4.80
2020,05,03,06,15,4.80
2020,05,03,06,16,3.20
2020,05,03,06,17,6.40
2020,05,03,06,18,6.40
2020,05,03,06,19,6.40
2020,05,03,06,20,4.80
2020,05,03,06,21,4.80
2020,05,03,06,22,4.80
2020,05,03,06,23,6.40
2020,05,03,06,24,6.40
2020,05,03,06,25,6.40
2020,05,03,06,26,6.40
2020,05,03,06,27,4.80
2020,05,03,06,28,6.40
2020,05,03,06,29,4.80
2020,05,03,06,30,3.20
2020,05,03,06,31,3.20
2020,05,03,06,32,3.20
2020,05,03,06,33,4.80
2020,05,03,06,34,4.80
2020,05,03,06,35,4.80
2020,05,03,06,36,4.80
2020,05,03,06,37,4.80
2020,05,03,06,38,4.80
2020,05,03,06,39,3.20
2020,05,03,06,40,4.80
2020,05,03,06,41,4.80
2020,05,03,06,42,3.20
2020,05,03,06,43,3.20
2020,05,03,06,44,4.80
2020,05,03,06,45,4.80
2020,05,03,06,46,4.80
2020,05,03,06,47,3.20
2020,05,03,06,48,4.80
2020,05,03,06,49,6.40
2020,05,03,06,50,4.80
2020,05,03,06,51,3.20
2020,05,03,06,52,3.20
2020,05,03,06,55,4.80
2020,05,03,06,56,3.20
2020,05,03,06,57,4.80
2020,05,03,06,58,6.40
2020,05,03,06,59,9.60
2020,05,03,07,00,9.60
2020,05,03,07,01,6.40
2020,05,03,07,02,6.40
2020,05,03,07,03,6.40
2020,05,03,07,04,11.30
2020,05,03,07,05,8.10
2020,05,03,07,06,6.40
2020,05,03,07,07,6.40
2020,05,03,07,08,3.20
2020,05,03,07,14,1.60
2020,05,03,07,15,1.60
2020,05,03,07,16,3.20
2020,05,03,07,17,1.60
2020,05,03,07,20,1.60
2020,05,03,07,21,1.60
2020,05,03,07,22,1.60
2020,05,03,07,23,3.20
2020,05,03,07,25,1.60
2020,05,03,07,26,1.60
2020,05,03,07,27,1.60
2020,05,03,07,39,3.20
2020,05,03,07,40,3.20
2020,05,03,07,41,4.80
2020,05,03,07,42,4.80
2020,05,03,07,43,3.20
2020,05,03,07,44,4.80
2020,05,03,07,45,4.80
2020,05,03,07,46,1.60
2020,05,03,07,47,1.60
2020,05,03,07,48,1.60
2020,05,03,07,49,3.20
2020,05,03,07,50,4.80
2020,05,03,07,51,3.20
2020,05,03,07,52,3.20
2020,05,03,07,55,3.20
2020,05,03,07,56,1.60
2020,05,03,07,57,3.20
2020,05,03,08,01,1.60
2020,05,03,08,04,1.60
2020,05,03,08,05,1.60
2020,05,03,08,08,1.60
2020,05,03,08,09,3.20
2020,05,03,08,10,1.60
2020,05,03,08,11,1.60
2020,05,03,08,16,1.60
2020,05,03,08,17,1.60
2020,05,03,08,43,1.60
2020,05,03,08,44,4.80
2020,05,03,08,46,1.60
2020,05,03,08,47,3.20
2020,05,03,08,48,1.60
2020,05,03,08,49,1.60
2020,05,03,08,51,1.60
2020,05,03,08,52,3.20
2020,05,03,08,53,3.20
2020,05,03,08,54,3.20
2020,05,03,08,57,1.60
2020,05,03,08,58,3.20
2020,05,03,08,59,3.20
2020,05,03,09,00,1.60
2020,05,03,09,01,6.40
2020,05,03,09,02,6.40
2020,05,03,09,03,6.40
2020,05,03,09,04,4.80
2020,05,03,09,05,8.10
2020,05,03,09,06,4.80
2020,05,03,09,07,4.80
2020,05,03,09,08,3.20
2020,05,03,09,09,4.80
2020,05,03,09,10,6.40
2020,05,03,09,11,8.10
2020,05,03,09,12,8.10
2020,05,03,09,13,4.80
2020,05,03,09,14,8.10
2020,05,03,09,15,6.40
2020,05,03,09,16,3.20
2020,05,03,09,17,4.80
2020,05,03,09,18,6.40
2020,05,03,09,19,6.40
2020,05,03,09,20,4.80
2020,05,03,09,21,3.20
2020,05,03,09,22,4.80
2020,05,03,09,23,6.40
2020,05,03,09,24,6.40
2020,05,03,09,25,6.40
2020,05,03,09,26,9.60
2020,05,03,09,27,8.10
2020,05,03,09,28,6.40
2020,05,03,09,29,3.20
2020,05,03,09,30,6.40
2020,05,03,09,31,4.80
2020,05,03,09,32,4.80
2020,05,03,09,33,3.20
2020,05,03,09,34,4.80
2020,05,03,09,35,3.20
2020,05,03,09,36,4.80
2020,05,03,09,37,4.80
2020,05,03,09,38,3.20
2020,05,03,09,39,1.60
2020,05,03,09,40,1.60
2020,05,03,09,41,1.60
2020,05,03,09,42,4.80
2020,05,03,09,43,3.20
2020,05,03,09,44,4.80
2020,05,03,09,45,6.40
2020,05,03,09,46,6.40
2020,05,03,09,47,3.20
2020,05,03,09,48,1.60
2020,05,03,09,49,1.60
2020,05,03,09,50,6.40
2020,05,03,09,51,6.40
2020,05,03,09,52,1.60
2020,05,03,09,53,3.20
2020,05,03,09,54,4.80
2020,05,03,09,55,6.40
2020,05,03,09,56,3.20
2020,05,03,09,57,1.60
2020,05,03,09,58,1.60
2020,05,03,10,00,4.80
2020,05,03,10,01,3.20
2020,05,03,10,02,1.60
2020,05,03,10,03,1.60
2020,05,03,10,07,1.60
2020,05,03,10,08,3.20
2020,05,03,10,09,3.20
2020,05,03,10,10,1.60
2020,05,03,10,14,1.60
2020,05,03,10,15,1.60
2020,05,03,10,19,1.60
2020,05,03,10,20,1.60
2020,05,03,10,21,3.20
2020,05,03,10,22,1.60
2020,05,03,10,23,1.60
2020,05,03,10,24,3.20
2020,05,03,10,25,1.60
2020,05,03,10,26,1.60
2020,05,03,10,27,1.60
2020,05,03,10,28,1.60
2020,05,03,10,30,1.60
2020,05,03,10,31,3.20
2020,05,03,10,32,3.20
2020,05,03,10,33,3.20
2020,05,03,10,34,4.80
2020,05,03,10,35,3.20
2020,05,03,10,36,6.40
2020,05,03,10,37,1.60
2020,05,03,10,38,1.60
2020,05,03,10,40,3.20
2020,05,03,10,41,1.60
2020,05,03,10,42,1.60
2020,05,03,10,44,1.60
2020,05,03,10,45,1.60
2020,05,03,10,46,1.60
2020,05,03,10,47,1.60
2020,05,03,10,48,1.60
2020,05,03,10,51,1.60
2020,05,03,10,52,3.20
2020,05,03,10,53,1.60
2020,05,03,10,54,3.20
2020,05,03,10,55,1.60
2020,05,03,10,56,3.20
2020,05,03,10,57,3.20
2020,05,03,10,58,1.60
2020,05,03,10,59,1.60
2020,05,03,11,03,1.60
2020,05,03,11,05,3.20
2020,05,03,11,06,1.60
2020,05,03,11,07,3.20
2020,05,03,11,08,3.20
2020,05,03,11,09,3.20
2020,05,03,11,10,1.60
2020,05,03,11,11,3.20
2020,05,03,11,12,3.20
2020,05,03,11,13,1.60
2020,05,03,11,14,1.60
2020,05,03,11,15,1.60
2020,05,03,11,16,1.60
2020,05,03,11,17,3.20
2020,05,03,11,18,6.40
2020,05,03,11,19,6.40
2020,05,03,11,20,8.10
2020,05,03,11,21,8.10
2020,05,03,11,22,6.40
2020,05,03,11,23,6.40
2020,05,03,11,25,1.60
2020,05,03,11,26,4.80
2020,05,03,11,27,4.80
2020,05,03,11,28,3.20
2020,05,03,11,29,1.60
2020,05,03,11,30,4.80
2020,05,03,11,31,8.10
2020,05,03,11,32,4.80
2020,05,03,11,33,8.10
2020,05,03,11,34,4.80
2020,05,03,11,35,4.80
2020,05,03,11,36,3.20
2020,05,03,11,37,3.20
2020,05,03,11,38,3.20
2020,05,03,11,39,3.20
2020,05,03,11,40,3.20
2020,05,03,11,41,3.20
2020,05,03,11,42,6.40
2020,05,03,11,43,3.20
2020,05,03,11,44,4.80
2020,05,03,11,45,3.20
2020,05,03,11,46,3.20
2020,05,03,11,47,3.20
2020,05,03,11,48,8.10
2020,05,03,11,49,1.60
2020,05,03,11,50,4.80
2020,05,03,11,51,6.40
2020,05,03,11,52,4.80
2020,05,03,11,53,9.60
2020,05,03,11,54,8.10
2020,05,03,11,55,6.40
2020,05,03,11,56,3.20
2020,05,03,11,57,1.60
2020,05,03,11,58,4.80
2020,05,03,11,59,1.60
2020,05,03,12,00,1.60
2020,05,03,12,01,3.20
2020,05,03,12,02,8.10
2020,05,03,12,03,4.80
2020,05,03,12,04,9.60
2020,05,03,12,06,1.60
2020,05,03,12,07,1.60
2020,05,03,12,08,9.60
2020,05,03,12,09,8.10
2020,05,03,12,10,4.80
2020,05,03,12,11,4.80
2020,05,03,12,12,4.80
2020,05,03,12,15,1.60
2020,05,03,12,16,3.20
2020,05,03,12,17,1.60
2020,05,03,12,18,6.40
2020,05,03,12,19,6.40
2020,05,03,12,20,4.80
2020,05,03,12,21,4.80
2020,05,03,12,22,6.40
2020,05,03,12,23,8.10
2020,05,03,12,24,4.80
2020,05,03,12,25,8.10
2020,05,03,12,26,4.80
2020,05,03,12,27,4.80
2020,05,03,12,28,4.80
2020,05,03,12,29,4.80
2020,05,03,12,30,6.40
2020,05,03,12,31,3.20
2020,05,03,12,32,3.20
2020,05,03,12,33,4.80
2020,05,03,12,34,3.20
2020,05,03,12,35,4.80
2020,05,03,12,36,11.30
2020,05,03,12,37,8.10
2020,05,03,12,38,6.40
2020,05,03,12,39,11.30
2020,05,03,12,40,9.60
2020,05,03,12,41,4.80
2020,05,03,12,42,8.10
2020,05,03,12,43,8.10
2020,05,03,12,44,14.50
2020,05,03,12,45,27.40
2020,05,03,12,46,32.20
2020,05,03,12,47,27.40
2020,05,03,12,48,14.50
2020,05,03,12,49,16.10
2020,05,03,12,50,19.30
2020,05,03,12,51,22.50
2020,05,03,12,52,17.70
2020,05,03,12,53,17.70
2020,05,03,12,54,22.50
2020,05,03,12,55,12.90
2020,05,03,12,56,11.30
2020,05,03,12,57,14.50
2020,05,03,12,58,11.30
2020,05,03,12,59,16.10
2020,05,03,13,00,12.90
2020,05,03,13,01,8.10
2020,05,03,13,02,12.90
2020,05,03,13,03,11.30
2020,05,03,13,04,11.30
2020,05,03,13,05,14.50
2020,05,03,13,06,8.10
2020,05,03,13,07,14.50
2020,05,03,13,08,11.30
2020,05,03,13,09,16.10
2020,05,03,13,10,11.30
2020,05,03,13,11,4.80
2020,05,03,13,12,9.60
2020,05,03,13,13,3.20
2020,05,03,13,14,6.40
2020,05,03,13,15,11.30
2020,05,03,13,16,11.30
2020,05,03,13,17,8.10
2020,05,03,13,18,8.10
2020,05,03,13,19,3.20
2020,05,03,13,20,4.80
2020,05,03,13,21,1.60
2020,05,03,13,22,3.20
2020,05,03,13,23,14.50
2020,05,03,13,24,12.90
2020,05,03,13,25,8.10
2020,05,03,13,26,6.40
2020,05,03,13,27,6.40
2020,05,03,13,28,11.30
2020,05,03,13,29,8.10
2020,05,03,13,30,8.10
2020,05,03,13,31,11.30
2020,05,03,13,32,22.50
2020,05,03,13,33,17.70
2020,05,03,13,34,6.40
2020,05,03,13,35,8.10
2020,05,03,13,36,3.20
2020,05,03,13,37,1.60
2020,05,03,13,38,8.10
2020,05,03,13,39,6.40
2020,05,03,13,40,4.80
2020,05,03,13,41,8.10
2020,05,03,13,42,6.40
2020,05,03,13,45,1.60
2020,05,03,13,46,4.80
2020,05,03,13,47,9.60
2020,05,03,13,48,6.40
2020,05,03,13,49,3.20
2020,05,03,13,50,9.60
2020,05,03,13,51,11.30
2020,05,03,13,52,8.10
2020,05,03,13,53,12.90
2020,05,03,13,54,14.50
2020,05,03,13,55,16.10
2020,05,03,13,56,8.10
2020,05,03,13,57,8.10
2020,05,03,13,58,3.20
2020,05,03,13,59,1.60
2020,05,03,14,00,6.40
2020,05,03,14,01,11.30
2020,05,03,14,02,9.60
2020,05,03,14,03,8.10
2020,05,03,14,04,14.50
2020,05,03,14,05,11.30
2020,05,03,14,06,3.20
2020,05,03,14,07,3.20
2020,05,03,14,08,9.60
2020,05,03,14,09,8.10
2020,05,03,14,10,11.30
2020,05,03,14,11,9.60
2020,05,03,14,12,9.60
2020,05,03,14,13,6.40
2020,05,03,14,14,6.40
2020,05,03,14,15,4.80
2020,05,03,14,16,4.80
2020,05,03,14,17,8.10
2020,05,03,14,18,9.60
2020,05,03,14,19,11.30
2020,05,03,14,20,4.80
2020,05,03,14,21,12.90
2020,05,03,14,22,8.10
2020,05,03,14,23,1.60
2020,05,03,14,24,1.60
2020,05,03,14,25,3.20
2020,05,03,14,26,6.40
2020,05,03,14,27,4.80
2020,05,03,14,28,6.40
2020,05,03,14,29,9.60
2020,05,03,14,30,9.60
2020,05,03,14,31,4.80
2020,05,03,14,32,8.10
2020,05,03,14,33,11.30
2020,05,03,14,34,12.90
2020,05,03,14,35,17.70
2020,05,03,14,36,14.50
2020,05,03,14,37,12.90
2020,05,03,14,38,11.30
2020,05,03,14,39,6.40
2020,05,03,14,40,9.60
2020,05,03,14,41,9.60
2020,05,03,14,42,17.70
2020,05,03,14,43,9.60
2020,05,03,14,44,8.10
2020,05,03,14,45,6.40
2020,05,03,14,46,11.30
2020,05,03,14,47,12.90
2020,05,03,14,48,22.50
2020,05,03,14,49,25.70
2020,05,03,14,50,35.40
2020,05,03,14,51,38.60
2020,05,03,14,52,20.90
2020,05,03,14,53,41.80
2020,05,03,14,54,32.20
2020,05,03,14,55,20.90
2020,05,03,14,56,25.70
2020,05,03,14,57,22.50
2020,05,03,14,58,14.50
2020,05,03,14,59,14.50
2020,05,03,15,00,16.10
2020,05,03,15,01,14.50
2020,05,03,15,02,20.90
2020,05,03,15,03,24.20
2020,05,03,15,04,8.10
2020,05,03,15,05,11.30
2020,05,03,15,06,16.10
2020,05,03,15,07,17.70
2020,05,03,15,08,19.30
2020,05,03,15,09,24.20
2020,05,03,15,10,22.50
2020,05,03,15,11,14.50
2020,05,03,15,12,14.50
2020,05,03,15,13,12.90
2020,05,03,15,14,11.30
2020,05,03,15,15,9.60
2020,05,03,15,16,12.90
2020,05,03,15,17,12.90
2020,05,03,15,18,12.90
2020,05,03,15,19,16.10
2020,05,03,15,20,14.50
2020,05,03,15,21,19.30
2020,05,03,15,22,8.10
2020,05,03,15,23,12.90
2020,05,03,15,24,14.50
2020,05,03,15,25,9.60
2020,05,03,15,26,14.50
2020,05,03,15,27,17.70
2020,05,03,15,28,16.10
2020,05,03,15,29,16.10
2020,05,03,15,30,24.20
2020,05,03,15,31,16.10
2020,05,03,15,32,16.10
2020,05,03,15,33,16.10
2020,05,03,15,34,14.50
2020,05,03,15,35,20.90
2020,05,03,15,36,14.50
2020,05,03,15,37,17.70
2020,05,03,15,38,16.10
2020,05,03,15,39,16.10
2020,05,03,15,40,16.10
2020,05,03,15,41,16.10
2020,05,03,15,42,16.10
2020,05,03,15,43,9.60
2020,05,03,15,44,9.60
2020,05,03,15,45,11.30
2020,05,03,15,46,11.30
2020,05,03,15,47,11.30
2020,05,03,15,48,9.60
2020,05,03,15,49,9.60
2020,05,03,15,50,17.70
2020,05,03,15,51,12.90
2020,05,03,15,52,9.60
2020,05,03,15,53,6.40
2020,05,03,15,54,4.80
2020,05,03,15,55,6.40
2020,05,03,15,56,8.10
2020,05,03,15,57,11.30
2020,05,03,15,58,9.60
2020,05,03,15,59,11.30
2020,05,03,16,00,6.40
2020,05,03,16,01,4.80
2020,05,03,16,02,9.60
2020,05,03,16,03,11.30
2020,05,03,16,04,14.50
2020,05,03,16,05,6.40
2020,05,03,16,06,9.60
2020,05,03,16,07,19.30
2020,05,03,16,08,12.90
2020,05,03,16,09,8.10
2020,05,03,16,10,8.10
2020,05,03,16,11,6.40
2020,05,03,16,12,8.10
2020,05,03,16,13,9.60
2020,05,03,16,14,4.80
2020,05,03,16,15,9.60
2020,05,03,16,16,16.10
2020,05,03,16,17,11.30
2020,05,03,16,18,3.20
2020,05,03,16,19,8.10
2020,05,03,16,20,4.80
2020,05,03,16,21,11.30
2020,05,03,16,22,11.30
2020,05,03,16,23,4.80
2020,05,03,16,24,4.80
2020,05,03,16,25,8.10
2020,05,03,16,26,8.10
2020,05,03,16,27,8.10
2020,05,03,16,28,8.10
2020,05,03,16,29,8.10
2020,05,03,16,30,9.60
2020,05,03,16,31,9.60
2020,05,03,16,32,14.50
2020,05,03,16,33,14.50
2020,05,03,16,34,9.60
2020,05,03,16,35,6.40
2020,05,03,16,36,3.20
2020,05,03,16,37,4.80
2020,05,03,16,38,9.60
2020,05,03,16,39,6.40
2020,05,03,16,40,12.90
2020,05,03,16,41,11.30
2020,05,03,16,42,8.10
2020,05,03,16,43,9.60
2020,05,03,16,44,14.50
2020,05,03,16,45,8.10
2020,05,03,16,46,6.40
2020,05,03,16,47,6.40
2020,05,03,16,48,8.10
2020,05,03,16,49,12.90
2020,05,03,16,50,12.90
2020,05,03,16,51,9.60
2020,05,03,16,52,8.10
2020,05,03,16,53,9.60
2020,05,03,16,54,11.30
2020,05,03,16,55,11.30
2020,05,03,16,56,8.10
2020,05,03,16,57,9.60
2020,05,03,16,58,12.90
2020,05,03,16,59,12.90
2020,05,03,17,00,6.40
2020,05,03,17,01,11.30
2020,05,03,17,02,12.90
2020,05,03,17,03,12.90
2020,05,03,17,04,11.30
2020,05,03,17,05,9.60
2020,05,03,17,06,11.30
2020,05,03,17,07,4.80
2020,05,03,17,08,8.10
2020,05,03,17,09,9.60
2020,05,03,17,10,11.30
2020,05,03,17,11,16.10
2020,05,03,17,12,14.50
2020,05,03,17,13,14.50
2020,05,03,17,14,11.30
2020,05,03,17,15,9.60
2020,05,03,17,16,9.60
2020,05,03,17,17,9.60
2020,05,03,17,18,6.40
2020,05,03,17,19,8.10
2020,05,03,17,20,6.40
2020,05,03,17,21,4.80
2020,05,03,17,22,9.60
2020,05,03,17,23,8.10
2020,05,03,17,24,4.80
2020,05,03,17,25,1.60
2020,05,03,17,26,8.10
2020,05,03,17,27,8.10
2020,05,03,17,28,11.30
2020,05,03,17,29,11.30
2020,05,03,17,30,17.70
2020,05,03,17,31,14.50
2020,05,03,17,32,8.10
2020,05,03,17,33,8.10
2020,05,03,17,34,6.40
2020,05,03,17,35,6.40
2020,05,03,17,36,9.60
2020,05,03,17,37,14.50
2020,05,03,17,38,14.50
2020,05,03,17,39,9.60
2020,05,03,17,40,11.30
2020,05,03,17,41,9.60
2020,05,03,17,42,9.60
2020,05,03,17,43,11.30
2020,05,03,17,44,11.30
2020,05,03,17,45,14.50
2020,05,03,17,46,12.90
2020,05,03,17,47,9.60
2020,05,03,17,48,4.80
2020,05,03,17,49,9.60
2020,05,03,17,50,8.10
2020,05,03,17,51,1.60
2020,05,03,17,52,8.10
2020,05,03,17,53,6.40
2020,05,03,17,54,6.40
2020,05,03,17,55,4.80
2020,05,03,17,56,4.80
2020,05,03,17,57,8.10
2020,05,03,17,58,8.10
2020,05,03,17,59,3.20
2020,05,03,18,00,4.80
2020,05,03,18,01,3.20
2020,05,03,18,02,4.80
2020,05,03,18,03,6.40
2020,05,03,18,04,8.10
2020,05,03,18,05,1.60
2020,05,03,18,06,1.60
2020,05,03,18,07,3.20
2020,05,03,18,08,4.80
2020,05,03,18,09,4.80
2020,05,03,18,10,4.80
2020,05,03,18,11,9.60
2020,05,03,18,12,8.10
2020,05,03,18,13,8.10
2020,05,03,18,14,9.60
2020,05,03,18,15,8.10
2020,05,03,18,16,12.90
2020,05,03,18,17,8.10
2020,05,03,18,18,12.90
2020,05,03,18,19,11.30
2020,05,03,18,20,12.90
2020,05,03,18,21,11.30
2020,05,03,18,22,8.10
2020,05,03,18,23,11.30
2020,05,03,18,24,14.50
2020,05,03,18,25,9.60
2020,05,03,18,26,8.10
2020,05,03,18,27,4.80
2020,05,03,18,28,4.80
2020,05,03,18,29,6.40
2020,05,03,18,30,8.10
2020,05,03,18,31,8.10
2020,05,03,18,32,6.40
2020,05,03,18,33,4.80
2020,05,03,18,34,6.40
2020,05,03,18,35,9.60
2020,05,03,18,36,6.40
2020,05,03,18,37,8.10
2020,05,03,18,38,4.80
2020,05,03,18,39,6.40
2020,05,03,18,40,12.90
2020,05,03,18,41,11.30
2020,05,03,18,42,14.50
2020,05,03,18,43,9.60
2020,05,03,18,44,11.30
2020,05,03,18,45,3.20
2020,05,03,18,46,4.80
2020,05,03,18,47,8.10
2020,05,03,18,48,6.40
2020,05,03,18,49,12.90
2020,05,03,18,50,8.10
2020,05,03,18,51,14.50
2020,05,03,18,52,12.90
2020,05,03,18,53,12.90
2020,05,03,18,54,9.60
2020,05,03,18,55,8.10
2020,05,03,18,56,3.20
2020,05,03,18,57,11.30
2020,05,03,18,58,12.90
2020,05,03,18,59,6.40
2020,05,03,19,00,9.60
2020,05,03,19,01,9.60
2020,05,03,19,02,8.10
2020,05,03,19,03,9.60
2020,05,03,19,04,3.20
2020,05,03,19,05,9.60
2020,05,03,19,06,6.40
2020,05,03,19,07,6.40
2020,05,03,19,08,9.60
2020,05,03,19,09,11.30
2020,05,03,19,10,6.40
2020,05,03,19,11,12.90
2020,05,03,19,12,16.10
2020,05,03,19,13,9.60
2020,05,03,19,14,12.90
2020,05,03,19,15,14.50
2020,05,03,19,16,11.30
2020,05,03,19,17,16.10
2020,05,03,19,18,14.50
2020,05,03,19,19,8.10
2020,05,03,19,20,11.30
2020,05,03,19,21,6.40
2020,05,03,19,22,8.10
2020,05,03,19,23,8.10
2020,05,03,19,24,11.30
2020,05,03,19,25,11.30
2020,05,03,19,26,16.10
2020,05,03,19,27,14.50
2020,05,03,19,28,12.90
2020,05,03,19,29,4.80
2020,05,03,19,30,6.40
2020,05,03,19,31,8.10
2020,05,03,19,32,4.80
2020,05,03,19,33,11.30
2020,05,03,19,34,6.40
2020,05,03,19,35,1.60
2020,05,03,19,36,6.40
2020,05,03,19,37,4.80
2020,05,03,19,38,4.80
2020,05,03,19,39,8.10
2020,05,03,19,40,8.10
2020,05,03,19,41,6.40
2020,05,03,19,42,8.10
2020,05,03,19,43,4.80
2020,05,03,19,44,3.20
2020,05,03,19,45,4.80
2020,05,03,19,46,8.10
2020,05,03,19,47,11.30
2020,05,03,19,48,8.10
2020,05,03,19,49,6.40
2020,05,03,19,50,6.40
2020,05,03,19,51,11.30
2020,05,03,19,52,8.10
2020,05,03,19,53,8.10
2020,05,03,19,54,6.40
2020,05,03,19,55,6.40
2020,05,03,19,56,1.60
2020,05,03,19,57,4.80
2020,05,03,19,58,1.60
2020,05,03,20,04,6.40
2020,05,03,20,06,1.60
2020,05,03,20,11,4.80
2020,05,03,20,12,4.80
2020,05,03,20,13,4.80
2020,05,03,20,14,1.60
2020,05,03,20,15,1.60
2020,05,03,20,16,4.80
2020,05,03,20,17,3.20
2020,05,03,20,18,8.10
2020,05,03,20,19,6.40
2020,05,03,20,20,6.40
2020,05,03,20,21,4.80
2020,05,03,20,22,1.60
2020,05,03,20,23,3.20
2020,05,03,20,24,1.60
2020,05,03,20,25,6.40
2020,05,03,20,26,6.40
2020,05,03,20,27,6.40
2020,05,03,20,28,6.40
2020,05,03,20,29,8.10
2020,05,03,20,30,6.40
2020,05,03,20,31,4.80
2020,05,03,20,32,1.60
2020,05,03,20,35,1.60
2020,05,03,20,36,3.20
2020,05,03,20,37,4.80
2020,05,03,20,38,3.20
2020,05,03,20,39,6.40
2020,05,03,20,40,3.20
2020,05,03,20,42,6.40
2020,05,03,20,43,4.80
2020,05,03,20,44,3.20
2020,05,03,20,45,1.60
2020,05,03,20,46,1.60
2020,05,03,20,47,1.60
2020,05,03,20,48,6.40
2020,05,03,20,49,4.80
2020,05,03,20,50,3.20
2020,05,03,20,51,4.80
2020,05,03,20,52,3.20
2020,05,03,20,53,6.40
2020,05,03,20,54,6.40
2020,05,03,20,55,6.40
2020,05,03,20,56,3.20
2020,05,03,20,57,8.10
2020,05,03,20,58,9.60
2020,05,03,20,59,3.20
2020,05,03,21,00,1.60
2020,05,03,21,01,4.80
2020,05,03,21,02,3.20
2020,05,03,21,03,3.20
2020,05,03,21,04,3.20
2020,05,03,21,05,6.40
2020,05,03,21,06,6.40
2020,05,03,21,07,1.60
2020,05,03,21,08,1.60
2020,05,03,21,09,3.20
2020,05,03,21,10,8.10
2020,05,03,21,11,4.80
2020,05,03,21,12,4.80
2020,05,03,21,13,4.80
2020,05,03,21,14,4.80
2020,05,03,21,15,1.60
2020,05,03,21,16,4.80
2020,05,03,21,17,6.40
2020,05,03,21,18,6.40